Location: *
(43.9900°N, 3.4811°E)
Time: 22:17:12
(UTC+00:00)

IGS 5A - Pass Details

Date: 25 August 2019
Orbit: 584 x 588 km, 97.6° (Epoch: 08 September)

Event Time Altitude Azimuth Distance (km) Brightness Sun altitude
Exits shadow 21:22:01 60° 334° (NNW) 673 3.9 -26.1°
Drops below altitude 10° 21:25:28 10° 346° (NNW) 1,916 6.9 -26.5°
Sets 21:27:38 0° 347° (NNW) 2,822 7.9 -26.8°
